Date,TemperatureHighF,TemperatureAvgF,TemperatureLowF,DewpointHighF,DewpointAvgF,DewpointLowF,HumidityHigh,HumidityAvg,HumidityLow,PressureMaxIn,PressureMinIn,WindSpeedMaxMPH,WindSpeedAvgMPH,GustSpeedMaxMPH,PrecipitationSumIn
2013-3-1,34,30,27,28,23,19,77,74,70,30.00,29.79,4,2,16,0.04
2013-3-2,29,26,23,21,18,16,75,73,70,30.00,29.93,4,2,11,0.04
2013-3-3,28,25,23,21,18,16,77,72,66,29.96,29.89,4,-61,11,0.04
2013-3-4,35,28,24,24,20,16,73,70,61,30.10,29.95,6,-33,13,0.04
2013-3-5,33,28,22,24,21,16,78,73,66,30.11,29.96,13,-58,18,0.00
2013-3-6,40,35,29,33,28,23,77,76,74,30.16,29.96,15,6,21,0.00
2013-3-7,41,36,32,33,29,24,76,75,68,30.30,30.16,6,2,10,0.00
2013-3-8,45,37,31,33,28,23,75,69,49,30.42,30.30,3,1,8,0.04
2013-3-9,45,36,28,35,28,21,75,72,66,30.42,30.17,6,-61,9,0.04
2013-3-10,65,49,35,42,34,27,74,58,38,30.17,29.93,10,3,17,0.04
2013-3-11,64,54,47,41,36,33,72,52,38,29.93,29.60,10,4,17,0.47
2013-3-12,48,40,36,39,31,27,72,71,69,29.90,29.69,10,6,18,0.67
2013-3-13,40,33,25,32,24,14,74,70,60,30.02,29.83,8,-135,18,0.12
2013-3-14,36,29,24,18,14,9,72,54,36,30.12,30.02,6,-82,18,0.04
2013-3-15,42,34,26,31,25,17,74,69,57,30.06,29.76,7,4,15,0.00
2013-3-16,31,28,22,21,18,15,75,68,59,30.00,29.86,13,6,19,0.00
2013-3-17,32,28,22,21,16,10,75,64,46,30.34,30.00,7,-82,13,0.00
2013-3-18,37,29,20,33,21,12,94,74,53,30.34,29.64,14,-532,24,0.16
2013-3-19,39,34,27,37,28,21,93,81,65,29.85,29.62,13,7,25,0.31
2013-3-20,33,29,26,24,21,17,92,74,59,29.85,29.82,7,-164,13,0.04
2013-3-21,32,27,22,28,21,17,90,78,66,29.84,29.72,8,4,15,0.00
2013-3-22,36,32,27,27,23,19,81,71,66,29.96,29.77,6,3,16,0.28
2013-3-23,43,35,29,29,26,22,77,68,52,30.05,29.94,4,2,13,0.08
2013-3-24,38,34,27,30,26,23,92,74,56,30.06,29.73,10,4,16,0.00
2013-3-25,41,36,33,31,28,24,74,70,59,29.76,29.64,18,8,26,0.00
2013-3-26,52,41,34,35,29,26,74,64,39,29.97,29.76,4,1,10,0.00
2013-3-27,47,39,34,35,30,26,74,71,58,30.09,29.95,5,2,13,0.12
2013-3-28,47,40,35,35,30,27,72,68,53,30.22,30.08,3,1,8,0.16
2013-3-29,55,44,37,33,31,28,74,62,39,30.22,30.14,4,1,10,0.00
2013-3-30,55,42,29,34,27,21,74,57,37,30.22,30.01,7,-82,15,0.00
2013-3-31,60,47,36,40,30,-100,71,55,36,30.01,29.58,12,6,22,0.04